.
WxDataArchive / Data Records for 2015-02-01
2015-01-31 February 2015 2015-02-02

Data Records for Sunday, 01 February 2015

Time	Temp	Chill	HIndex	Humid	Dewpt	 Wind 	HiWind	WindDir	Rain 	Barom
-----	----	-----	------	-----	-----	------	------	-------	-----	-----
00:00	33.2	33.2	33.2	88	30.0	0	1	248	0.00	30.179 
00:05	33.1	33.1	33.1	88	29.9	0	0	---	0.00	30.179 
00:10	33.1	33.1	33.1	88	29.9	0	0	---	0.00	30.179 
00:15	32.9	32.9	32.9	89	30.0	0	1	248	0.00	30.177 
00:20	32.9	32.9	32.9	89	30.0	0	0	---	0.00	30.177 
00:25	32.9	32.9	32.9	89	30.0	0	1	248	0.00	30.177 
00:30	32.9	32.9	32.9	89	30.0	0	0	---	0.00	30.177 
00:35	32.8	32.8	32.8	90	30.2	0	1	248	0.00	30.177 
00:40	32.8	32.8	32.8	90	30.2	0	1	248	0.00	30.177 
00:45	32.8	32.8	32.8	90	30.2	0	1	248	0.00	30.176 
00:50	32.8	32.8	32.8	90	30.2	0	0	---	0.00	30.176 
00:55	32.8	32.8	32.8	91	30.5	0	1	248	0.00	30.176 
01:00	32.8	32.8	32.8	91	30.5	0	1	248	0.00	30.175 
01:05	32.7	32.7	32.7	91	30.4	0	1	248	0.00	30.175 
01:10	32.7	32.7	32.7	91	30.4	0	1	248	0.00	30.175 
01:15	32.7	32.7	32.7	91	30.4	0	0	---	0.00	30.168 
01:20	32.7	32.7	32.7	91	30.4	0	1	248	0.00	30.168 
01:25	32.7	32.7	32.7	91	30.4	0	0	---	0.00	30.168 
01:30	32.7	32.7	32.7	91	30.4	0	0	---	0.00	30.162 
01:35	32.7	32.7	32.7	92	30.6	0	1	248	0.00	30.162 
01:40	32.7	32.7	32.7	92	30.6	0	1	248	0.00	30.162 
01:45	32.7	32.7	32.7	92	30.6	0	1	248	0.00	30.162 
01:50	32.7	32.7	32.7	92	30.6	0	1	248	0.00	30.162 
01:55	32.7	32.7	32.7	92	30.6	0	0	---	0.00	30.162 
02:00	32.7	32.7	32.7	92	30.6	0	1	248	0.00	30.162 
02:05	32.5	32.5	32.5	92	30.4	0	0	---	0.00	30.162 
02:10	32.5	32.5	32.5	92	30.4	0	0	---	0.00	30.162 
02:15	32.5	32.5	32.5	92	30.4	0	1	248	0.00	30.158 
02:20	32.5	32.5	32.5	92	30.4	0	0	---	0.00	30.158 
02:25	32.5	32.5	32.5	92	30.4	0	0	---	0.00	30.158 
02:30	32.5	32.5	32.5	92	30.4	0	0	---	0.00	30.149 
02:35	32.5	32.5	32.5	92	30.4	0	0	---	0.00	30.149 
02:40	32.5	32.5	32.5	92	30.4	0	0	---	0.00	30.149 
02:45	32.5	32.5	32.5	92	30.4	0	0	---	0.00	30.143 
02:50	32.4	32.4	32.4	92	30.3	0	0	---	0.00	30.143 
02:55	32.4	32.4	32.4	92	30.3	0	0	---	0.00	30.143 
03:00	32.4	32.4	32.4	92	30.3	0	0	---	0.00	30.140 
03:05	32.4	32.4	32.4	92	30.3	0	0	---	0.00	30.140 
03:10	32.4	32.4	32.4	93	30.6	0	0	---	0.00	30.140 
03:15	32.4	32.4	32.4	93	30.6	0	0	---	0.00	30.135 
03:20	32.4	32.4	32.4	93	30.6	0	0	---	0.00	30.135 
03:25	32.4	32.4	32.4	93	30.6	0	0	---	0.00	30.135 
03:30	32.4	32.4	32.4	93	30.6	0	0	---	0.00	30.129 
03:35	32.4	32.4	32.4	93	30.6	0	0	---	0.00	30.129 
03:40	32.4	32.4	32.4	93	30.6	0	0	---	0.00	30.129 
03:45	32.4	32.4	32.4	93	30.6	0	0	---	0.00	30.121 
03:50	32.4	32.4	32.4	93	30.6	0	0	---	0.00	30.121 
03:55	32.2	32.2	32.2	93	30.4	0	0	---	0.00	30.121 
04:00	32.2	32.2	32.2	93	30.4	0	0	---	0.00	30.116 
04:05	32.2	32.2	32.2	93	30.4	0	0	---	0.00	30.116 
04:10	32.2	32.2	32.2	93	30.4	0	0	---	0.00	30.116 
04:15	32.2	32.2	32.2	93	30.4	0	0	---	0.00	30.114 
04:20	32.2	32.2	32.2	93	30.4	0	0	---	0.00	30.114 
04:25	32.2	32.2	32.2	93	30.4	0	0	---	0.00	30.114 
04:30	32.2	32.2	32.2	94	30.7	0	0	---	0.00	30.113 
04:35	32.2	32.2	32.2	94	30.7	0	0	---	0.00	30.113 
04:40	32.2	32.2	32.2	94	30.7	0	0	---	0.00	30.113 
04:45	32.2	32.2	32.2	94	30.7	0	0	---	0.00	30.111 
04:50	32.2	32.2	32.2	94	30.7	0	0	---	0.00	30.111 
04:55	32.2	32.2	32.2	94	30.7	0	0	---	0.00	30.111 
05:00	32.2	32.2	32.2	94	30.7	0	0	---	0.00	30.103 
05:05	32.2	32.2	32.2	94	30.7	0	0	---	0.00	30.103 
05:10	32.2	32.2	32.2	94	30.7	0	0	---	0.00	30.103 
05:15	32.2	32.2	32.2	94	30.7	0	0	---	0.00	30.103 
05:20	32.2	32.2	32.2	94	30.7	0	0	---	0.00	30.103 
05:25	32.2	32.2	32.2	94	30.7	0	0	---	0.00	30.103 
05:30	32.2	32.2	32.2	94	30.7	0	0	---	0.00	30.099 
05:35	32.1	32.1	32.1	94	30.6	0	0	---	0.00	30.099 
05:40	32.1	32.1	32.1	94	30.6	0	0	---	0.00	30.099 
05:45	32.1	32.1	32.1	94	30.6	0	0	---	0.00	30.094 
05:50	32.1	32.1	32.1	94	30.6	0	0	---	0.00	30.094 
05:55	32.1	32.1	32.1	94	30.6	0	0	---	0.00	30.094 
06:00	32.1	32.1	32.1	94	30.6	0	0	---	0.00	30.097 
06:05	32.1	32.1	32.1	94	30.6	0	0	---	0.00	30.097 
06:10	32.1	32.1	32.1	94	30.6	0	0	---	0.00	30.097 
06:15	32.1	32.1	32.1	94	30.6	0	0	---	0.00	30.088 
06:20	32.1	32.1	32.1	94	30.6	0	0	---	0.00	30.088 
06:25	32.1	32.1	32.1	94	30.6	0	0	---	0.00	30.088 
06:30	32.1	32.1	32.1	94	30.6	0	0	---	0.00	30.084 
06:35	32.1	32.1	32.1	95	30.8	0	0	---	0.00	30.084 
06:40	32.1	32.1	32.1	95	30.8	0	0	---	0.00	30.084 
06:45	32.1	32.1	32.1	95	30.8	0	0	---	0.00	30.084 
06:50	32.1	32.1	32.1	95	30.8	0	0	---	0.00	30.084 
06:55	32.1	32.1	32.1	95	30.8	0	0	---	0.00	30.084 
07:00	32.1	32.1	32.1	95	30.8	0	0	---	0.00	30.085 
07:05	32.1	32.1	32.1	95	30.8	0	0	---	0.00	30.085 
07:10	32.2	32.2	32.2	95	30.9	0	0	---	0.00	30.085 
07:15	32.2	32.2	32.2	95	30.9	0	0	---	0.00	30.080 
07:20	32.2	32.2	32.2	95	30.9	0	0	---	0.00	30.080 
07:25	32.2	32.2	32.2	95	30.9	0	0	---	0.00	30.080 
07:30	32.2	32.2	32.2	95	30.9	0	0	---	0.00	30.068 
07:35	32.2	32.2	32.2	95	30.9	0	0	---	0.00	30.068 
07:40	32.2	32.2	32.2	95	30.9	0	0	---	0.00	30.068 
07:45	32.2	32.2	32.2	95	30.9	0	0	---	0.00	30.055 
07:50	32.2	32.2	32.2	95	30.9	0	0	---	0.00	30.055 
07:55	32.2	32.2	32.2	95	30.9	0	0	---	0.00	30.055 
08:00	32.2	32.2	32.2	95	30.9	0	0	---	0.00	30.051 
08:05	32.4	32.4	32.4	95	31.1	0	0	---	0.00	30.051 
08:10	32.4	32.4	32.4	95	31.1	0	0	---	0.00	30.051 
08:15	32.4	32.4	32.4	95	31.1	0	0	---	0.00	30.045 
08:20	32.4	32.4	32.4	95	31.1	0	0	---	0.00	30.045 
08:25	32.4	32.4	32.4	95	31.1	0	0	---	0.00	30.045 
08:30	32.4	32.4	32.4	95	31.1	0	0	---	0.00	30.022 
08:35	32.4	32.4	32.4	95	31.1	0	0	---	0.00	30.022 
08:40	32.4	32.4	32.4	95	31.1	0	0	---	0.00	30.022 
08:45	32.4	32.4	32.4	95	31.1	0	0	---	0.00	30.025 
08:50	32.4	32.4	32.4	95	31.1	0	0	---	0.00	30.025 
08:55	32.2	32.2	32.2	95	30.9	0	0	---	0.00	30.025 
09:00	32.4	32.4	32.4	95	31.1	0	0	---	0.00	30.012 
09:05	32.4	32.4	32.4	95	31.1	0	0	---	0.00	30.012 
09:10	32.4	32.4	32.4	95	31.1	0	0	---	0.00	30.012 
09:15	32.4	32.4	32.4	95	31.1	0	0	---	0.00	30.001 
09:20	32.4	32.4	32.4	95	31.1	0	0	---	0.00	30.001 
09:25	32.4	32.4	32.4	95	31.1	0	0	---	0.00	30.001 
09:30	32.4	32.4	32.4	95	31.1	0	0	---	0.00	29.987 
09:35	32.4	32.4	32.4	95	31.1	1	5	112	0.00	29.987 
09:40	32.4	32.4	32.4	95	31.1	2	4	90	0.00	29.987 
09:45	32.4	32.4	32.4	95	31.1	2	5	90	0.00	29.982 
09:50	32.4	32.4	32.4	95	31.1	2	4	90	0.00	29.982 
09:55	32.4	32.4	32.4	95	31.1	3	6	90	0.00	29.982 
10:00	32.4	32.4	32.4	95	31.1	2	7	90	0.00	29.979 
10:05	32.4	32.4	32.4	95	31.1	3	7	112	0.00	29.979 
10:10	32.4	32.4	32.4	95	31.1	3	6	90	0.00	29.979 
10:15	32.4	32.4	32.4	95	31.1	3	7	112	0.00	29.967 
10:20	32.4	32.4	32.4	95	31.1	2	5	112	0.00	29.967 
10:25	32.4	32.4	32.4	96	31.4	2	5	112	0.00	29.967 
10:30	32.4	32.4	32.4	96	31.4	3	9	90	0.00	29.958 
10:35	32.4	28.5	32.4	96	31.4	4	9	112	0.00	29.958 
10:40	32.4	28.5	32.4	96	31.4	4	8	112	0.00	29.958 
10:45	32.4	32.4	32.4	95	31.1	3	6	112	0.00	29.956 
10:50	32.4	32.4	32.4	96	31.4	3	6	112	0.00	29.956 
10:55	32.4	32.4	32.4	95	31.1	3	6	112	0.00	29.956 
11:00	32.2	32.2	32.2	95	30.9	3	7	112	0.00	29.942 
11:05	32.2	32.2	32.2	95	30.9	2	11	112	0.00	29.942 
11:10	31.9	31.9	31.9	95	30.6	3	11	112	0.00	29.942 
11:15	31.5	31.5	31.5	95	30.2	3	9	90	0.00	29.930 
11:20	31.3	31.3	31.3	95	30.0	3	10	112	0.00	29.930 
11:25	31.2	31.2	31.2	95	29.9	3	9	90	0.00	29.930 
11:30	31.0	31.0	31.0	95	29.7	3	12	112	0.00	29.927 
11:35	30.9	30.9	30.9	95	29.6	2	4	112	0.00	29.927 
11:40	30.7	30.7	30.7	95	29.4	3	6	90	0.00	29.927 
11:45	30.6	30.6	30.6	95	29.3	3	7	112	0.00	29.918 
11:50	30.4	26.2	30.4	95	29.1	4	11	112	0.00	29.918 
11:55	30.3	30.3	30.3	95	29.0	3	10	90	0.00	29.918 
12:00	30.1	30.1	30.1	95	28.8	2	7	112	0.00	29.909 
12:05	30.1	25.9	30.1	95	28.8	4	9	90	0.00	29.909 
12:10	30.1	30.1	30.1	95	28.8	3	8	90	0.00	29.909 
12:15	30.0	30.0	30.0	95	28.7	2	5	112	0.00	29.899 
12:20	30.0	30.0	30.0	95	28.7	3	6	112	0.00	29.899 
12:25	30.0	30.0	30.0	95	28.7	2	10	90	0.00	29.899 
12:30	30.0	30.0	30.0	95	28.7	3	6	90	0.00	29.883 
12:35	29.8	29.8	29.8	95	28.5	2	9	90	0.00	29.883 
12:40	29.7	29.7	29.7	95	28.4	2	5	112	0.00	29.883 
12:45	29.5	29.5	29.5	95	28.2	3	8	112	0.00	29.873 
12:50	29.3	25.0	29.3	95	28.0	4	11	112	0.00	29.873 
12:55	29.3	29.3	29.3	95	28.0	3	6	112	0.00	29.873 
13:00	29.3	29.3	29.3	95	28.0	2	6	112	0.00	29.851 
13:05	29.3	29.3	29.3	95	28.0	2	6	112	0.00	29.851 
13:10	29.1	29.1	29.1	95	27.9	3	8	112	0.00	29.851 
13:15	29.0	29.0	29.0	95	27.8	3	7	112	0.00	29.835 
13:20	29.0	29.0	29.0	95	27.8	3	5	90	0.00	29.835 
13:25	28.8	28.8	28.8	95	27.6	3	5	90	0.00	29.835 
13:30	28.8	28.8	28.8	95	27.6	2	5	90	0.00	29.821 
13:35	28.8	28.8	28.8	95	27.6	3	7	112	0.00	29.821 
13:40	28.8	28.8	28.8	95	27.6	3	7	90	0.00	29.821 
13:45	28.8	28.8	28.8	95	27.6	3	7	112	0.00	29.805 
13:50	28.8	28.8	28.8	95	27.6	3	8	90	0.00	29.805 
13:55	28.8	28.8	28.8	95	27.6	3	7	90	0.00	29.805 
14:00	28.7	28.7	28.7	95	27.5	3	9	90	0.00	29.789 
14:05	28.7	28.7	28.7	95	27.5	3	7	112	0.00	29.789 
14:10	28.7	28.7	28.7	95	27.5	2	6	112	0.00	29.789 
14:15	28.7	28.7	28.7	95	27.5	3	7	112	0.00	29.774 
14:20	28.7	28.7	28.7	95	27.5	3	6	112	0.00	29.774 
14:25	28.7	28.7	28.7	95	27.5	2	9	112	0.00	29.774 
14:30	28.8	28.8	28.8	95	27.6	3	7	112	0.00	29.746 
14:35	28.8	28.8	28.8	95	27.6	2	10	90	0.00	29.746 
14:40	28.8	28.8	28.8	95	27.6	3	7	90	0.00	29.746 
14:45	28.8	28.8	28.8	95	27.6	2	6	112	0.00	29.743 
14:50	28.8	28.8	28.8	95	27.6	3	7	112	0.00	29.743 
14:55	29.0	29.0	29.0	95	27.8	2	5	112	0.00	29.743 
15:00	29.0	29.0	29.0	95	27.8	2	7	90	0.00	29.727 
15:05	29.0	29.0	29.0	95	27.8	2	6	112	0.00	29.727 
15:10	28.8	28.8	28.8	95	27.6	2	5	112	0.00	29.727 
15:15	28.8	28.8	28.8	95	27.6	2	6	112	0.00	29.723 
15:20	28.8	28.8	28.8	95	27.6	2	6	112	0.00	29.723 
15:25	28.8	28.8	28.8	95	27.6	1	4	90	0.00	29.723 
15:30	28.8	28.8	28.8	95	27.6	1	4	90	0.00	29.718 
15:35	28.7	28.7	28.7	95	27.5	1	7	90	0.00	29.718 
15:40	28.4	28.4	28.4	95	27.2	1	6	90	0.00	29.718 
15:45	28.2	28.2	28.2	95	27.0	1	6	112	0.00	29.699 
15:50	28.1	28.1	28.1	95	26.9	2	5	112	0.00	29.699 
15:55	27.9	27.9	27.9	95	26.7	1	5	112	0.00	29.699 
16:00	27.9	27.9	27.9	95	26.7	1	7	112	0.00	29.693 
16:05	27.8	27.8	27.8	95	26.6	3	7	112	0.00	29.693 
16:10	27.8	27.8	27.8	95	26.6	2	9	112	0.00	29.693 
16:15	27.8	27.8	27.8	95	26.6	2	7	90	0.00	29.689 
16:20	27.6	27.6	27.6	95	26.4	2	5	112	0.00	29.689 
16:25	27.6	27.6	27.6	95	26.4	1	4	68	0.00	29.689 
16:30	27.5	27.5	27.5	94	26.0	1	3	45	0.00	29.688 
16:35	27.3	27.3	27.3	94	25.8	2	6	90	0.00	29.688 
16:40	27.2	27.2	27.2	94	25.7	2	6	112	0.00	29.688 
16:45	26.9	26.9	26.9	94	25.4	2	5	45	0.00	29.683 
16:50	26.7	26.7	26.7	94	25.2	1	6	112	0.00	29.683 
16:55	26.6	26.6	26.6	94	25.1	1	5	135	0.00	29.683 
17:00	26.6	26.6	26.6	94	25.1	1	5	112	0.00	29.681 
17:05	26.4	26.4	26.4	94	24.9	2	9	90	0.00	29.681 
17:10	26.3	26.3	26.3	94	24.8	1	6	112	0.00	29.681 
17:15	26.1	26.1	26.1	94	24.6	2	7	112	0.00	29.667 
17:20	25.8	25.8	25.8	94	24.3	2	6	112	0.00	29.667 
17:25	25.7	25.7	25.7	94	24.2	2	5	112	0.00	29.667 
17:30	25.6	25.6	25.6	94	24.1	2	4	90	0.00	29.666 
17:35	25.6	25.6	25.6	94	24.1	1	4	112	0.00	29.666 
17:40	25.4	25.4	25.4	94	23.9	1	9	68	0.00	29.666 
17:45	25.3	25.3	25.3	94	23.8	2	8	90	0.00	29.663 
17:50	25.3	25.3	25.3	93	23.6	2	8	45	0.00	29.663 
17:55	25.1	25.1	25.1	93	23.4	2	7	22	0.00	29.663 
18:00	25.0	25.0	25.0	93	23.3	2	6	112	0.00	29.654 
18:05	25.0	25.0	25.0	93	23.3	1	5	22	0.00	29.654 
18:10	25.0	25.0	25.0	93	23.3	2	7	90	0.00	29.654 
18:15	25.0	25.0	25.0	93	23.3	2	7	112	0.00	29.652 
18:20	25.0	25.0	25.0	93	23.3	1	6	45	0.00	29.652 
18:25	24.8	24.8	24.8	93	23.1	2	5	90	0.00	29.652 
18:30	24.8	24.8	24.8	93	23.1	3	7	22	0.00	29.650 
18:35	24.8	24.8	24.8	93	23.1	2	6	112	0.00	29.650 
18:40	24.8	24.8	24.8	93	23.1	2	11	112	0.00	29.650 
18:45	24.8	24.8	24.8	93	23.1	2	6	90	0.00	29.640 
18:50	24.8	24.8	24.8	93	23.1	1	5	45	0.00	29.640 
18:55	24.7	24.7	24.7	93	23.0	2	6	45	0.00	29.640 
19:00	24.7	24.7	24.7	93	23.0	1	4	45	0.00	29.636 
19:05	24.5	24.5	24.5	93	22.8	2	6	90	0.00	29.636 
19:10	24.4	24.4	24.4	93	22.7	2	6	45	0.00	29.636 
19:15	24.4	24.4	24.4	93	22.7	1	7	45	0.00	29.633 
19:20	24.2	24.2	24.2	93	22.5	2	9	22	0.00	29.633 
19:25	24.1	24.1	24.1	93	22.4	2	5	112	0.00	29.633 
19:30	23.9	23.9	23.9	93	22.2	2	6	45	0.00	29.636 
19:35	23.9	23.9	23.9	92	21.9	2	5	45	0.00	29.636 
19:40	23.8	23.8	23.8	92	21.8	2	6	90	0.00	29.636 
19:45	23.6	23.6	23.6	92	21.6	2	6	90	0.00	29.628 
19:50	23.5	23.5	23.5	92	21.5	2	6	68	0.00	29.628 
19:55	23.3	23.3	23.3	92	21.3	2	6	22	0.00	29.628 
20:00	23.3	23.3	23.3	92	21.3	1	4	68	0.00	29.632 
20:05	23.0	23.0	23.0	92	21.0	1	5	45	0.00	29.632 
20:10	22.9	22.9	22.9	92	20.9	3	7	112	0.00	29.632 
20:15	22.5	22.5	22.5	92	20.5	2	6	45	0.00	29.620 
20:20	22.4	22.4	22.4	92	20.4	2	5	45	0.00	29.620 
20:25	22.2	22.2	22.2	92	20.2	1	5	112	0.00	29.620 
20:30	22.1	22.1	22.1	91	19.9	1	5	45	0.00	29.622 
20:35	21.9	21.9	21.9	91	19.7	2	8	45	0.00	29.622 
20:40	21.9	21.9	21.9	91	19.7	2	6	112	0.00	29.622 
20:45	21.8	21.8	21.8	91	19.6	1	6	68	0.00	29.619 
20:50	21.6	21.6	21.6	91	19.4	2	7	22	0.00	29.619 
20:55	21.6	21.6	21.6	91	19.4	2	9	45	0.00	29.619 
21:00	21.4	21.4	21.4	91	19.2	1	4	22	0.00	29.614 
21:05	21.3	21.3	21.3	91	19.1	2	11	45	0.00	29.614 
21:10	21.3	21.3	21.3	91	19.1	1	5	90	0.00	29.614 
21:15	21.1	21.1	21.1	91	18.9	1	5	45	0.00	29.611 
21:20	21.1	21.1	21.1	90	18.6	2	4	45	0.00	29.611 
21:25	21.0	21.0	21.0	90	18.5	2	7	90	0.00	29.611 
21:30	21.0	21.0	21.0	90	18.5	1	5	45	0.00	29.614 
21:35	20.8	20.8	20.8	90	18.3	2	5	90	0.00	29.614 
21:40	20.6	20.6	20.6	90	18.1	1	4	90	0.00	29.614 
21:45	20.6	20.6	20.6	90	18.1	1	4	68	0.00	29.614 
21:50	20.5	20.5	20.5	90	18.0	1	4	45	0.00	29.614 
21:55	20.3	20.3	20.3	89	17.6	2	5	45	0.00	29.614 
22:00	20.3	20.3	20.3	89	17.6	2	5	45	0.00	29.624 
22:05	20.3	20.3	20.3	89	17.6	1	4	45	0.00	29.624 
22:10	20.2	20.2	20.2	89	17.5	1	5	90	0.00	29.624 
22:15	20.2	20.2	20.2	89	17.5	1	6	68	0.00	29.625 
22:20	20.2	20.2	20.2	89	17.5	0	3	45	0.00	29.625 
22:25	20.0	20.0	20.0	89	17.3	0	3	90	0.00	29.625 
22:30	19.9	19.9	19.9	89	17.2	1	4	292	0.00	29.626 
22:35	19.9	19.9	19.9	89	17.2	1	5	338	0.00	29.626 
22:40	19.7	19.7	19.7	89	17.0	1	4	90	0.00	29.626 
22:45	19.7	19.7	19.7	89	17.0	1	5	112	0.00	29.628 
22:50	19.5	19.5	19.5	89	16.8	0	2	292	0.00	29.628 
22:55	19.5	19.5	19.5	89	16.8	1	3	315	0.00	29.628 
23:00	19.5	19.5	19.5	89	16.8	0	4	270	0.00	29.639 
23:05	19.5	19.5	19.5	89	16.8	1	3	0	0.00	29.639 
23:10	19.5	19.5	19.5	89	16.8	0	3	0	0.00	29.639 
23:15	19.5	19.5	19.5	89	16.8	1	5	22	0.00	29.636 
23:20	19.5	19.5	19.5	89	16.8	1	4	338	0.00	29.636 
23:25	19.5	19.5	19.5	89	16.8	1	5	112	0.00	29.636 
23:30	19.5	19.5	19.5	89	16.8	1	5	315	0.00	29.632 
23:35	19.5	19.5	19.5	89	16.8	1	3	315	0.00	29.632 
23:40	19.5	19.5	19.5	89	16.8	1	3	315	0.00	29.632 
23:45	19.4	19.4	19.4	89	16.7	1	3	315	0.00	29.636 
23:50	19.2	19.2	19.2	89	16.5	1	7	315	0.00	29.636 
23:55	19.1	19.1	19.1	88	16.1	1	3	338	0.00	29.636 

CoCoRaHS
IN-AL-39
A2 Web Hosting
Creative Commons License
GoDaddy
search engine by freefind advanced

loaded 2018-11-15 13:42:28 • last modified 2010-11-18 10:43:29
Privacy PolicyDisclaimer
• wx.awcolley.com is powered by PmWiki v.2002016 •
• all content (unless otherwise noted) © 2018 A W Colley